{"data":{"norad_id":62932,"epoch":"2026-09-22T17:53:05.214336Z","epoch_age_seconds":121553,"freshness":"FRESH","line1":"1 62932U 25028E   26265.74519924  .00000716  00000+0  11790-3 0  9995","line2":"2 62932  98.1206 321.2681 0004080 199.3276 160.7778 14.73579415 86974","mean_motion":14.73579415,"eccentricity":0.000408,"inclination_deg":98.1206,"raan_deg":321.2681,"arg_perigee_deg":199.3276,"mean_anomaly_deg":160.7778,"bstar":0.0001179,"rev_number":8697,"period_min":97.721234793443,"perigee_km":646.79701000487,"apogee_km":652.53169590888,"semimajor_km":7027.8013529569,"source":"CELESTRAK","updated_at":"2026-09-23T09:00:21.727375Z"}}